Time,TemperatureF,DewpointF,PressureIn,WindDirection,WindDirectionDegrees,WindSpeedMPH,WindSpeedGustMPH,Humidity,HourlyPrecipIn,Conditions,Clouds,dailyrainin,SolarRadiationWatts/m^2,SoftwareType,DateUTC
2013-02-01 00:00:00,12.0,8.0,-100.00,WNW,292,8.0,-999.0,84,-99.99,,,-99.99,0.000000,,2013-02-01 05:00:00,
2013-02-01 00:32:00,12.0,8.0,-100.00,WNW,292,8.0,-999.0,84,-99.99,,,-99.99,0.000000,,2013-02-01 05:32:00,
2013-02-01 00:42:00,12.0,8.0,-100.00,WNW,292,8.0,-999.0,84,-99.99,,,-99.99,0.000000,,2013-02-01 05:42:00,
2013-02-01 00:52:00,12.0,8.0,-100.00,WNW,292,8.0,-999.0,84,-99.99,,,-99.99,0.000000,,2013-02-01 05:52:00,
2013-02-01 03:00:00,12.0,7.0,-100.00,WNW,292,8.0,-999.0,81,-99.99,,,-99.99,0.000000,,2013-02-01 08:00:00,
2013-02-01 03:42:00,12.0,7.0,-100.00,WNW,292,8.0,-999.0,81,-99.99,,,-99.99,0.000000,,2013-02-01 08:42:00,
2013-02-01 03:52:00,12.0,7.0,-100.00,WNW,292,8.0,-999.0,81,-99.99,,,-99.99,0.000000,,2013-02-01 08:52:00,
2013-02-01 06:00:00,11.0,7.0,-100.00,West,270,6.0,-999.0,83,-99.99,,,-99.99,0.000000,,2013-02-01 11:00:00,
2013-02-01 06:32:00,11.0,7.0,-100.00,West,270,6.0,-999.0,83,-99.99,,,-99.99,0.000000,,2013-02-01 11:32:00,
2013-02-01 06:42:00,11.0,7.0,-100.00,West,270,6.0,-999.0,83,-99.99,,,-99.99,0.000000,,2013-02-01 11:42:00,
2013-02-01 06:53:00,11.0,7.0,-100.00,West,270,6.0,-999.0,83,-99.99,,,-99.99,0.000000,,2013-02-01 11:53:00,
2013-02-01 09:00:00,9.0,4.0,-100.00,West,270,6.0,-999.0,81,-99.99,,,-99.99,18.559999,,2013-02-01 14:00:00,
2013-02-01 09:42:00,9.0,4.0,-100.00,West,270,6.0,-999.0,81,-99.99,,,-99.99,18.559999,,2013-02-01 14:42:00,
2013-02-01 09:53:00,9.0,4.0,-100.00,West,270,6.0,-999.0,81,-99.99,,,-99.99,18.559999,,2013-02-01 14:53:00,
2013-02-01 12:00:00,8.0,3.0,-100.00,SW,225,6.0,-999.0,79,-99.99,,,-99.99,250.559998,,2013-02-01 17:00:00,
2013-02-01 12:42:00,8.0,3.0,-100.00,SW,225,6.0,-999.0,79,-99.99,,,-99.99,250.559998,,2013-02-01 17:42:00,
2013-02-01 12:53:00,8.0,3.0,-100.00,SW,225,6.0,-999.0,79,-99.99,,,-99.99,250.559998,,2013-02-01 17:53:00,
2013-02-01 15:00:00,10.0,1.0,-100.00,SSW,202,6.0,-999.0,67,-99.99,,,-99.99,382.799988,,2013-02-01 20:00:00,
2013-02-01 15:42:00,10.0,1.0,-100.00,SSW,202,6.0,-999.0,67,-99.99,,,-99.99,382.799988,,2013-02-01 20:42:00,
2013-02-01 15:52:00,10.0,1.0,-100.00,SSW,202,6.0,-999.0,67,-99.99,,,-99.99,382.799988,,2013-02-01 20:52:00,
2013-02-01 18:00:00,11.0,-2.0,-100.00,SSW,202,5.0,-999.0,56,-99.99,,,-99.99,62.639999,,2013-02-01 23:00:00,
2013-02-01 18:42:00,11.0,-2.0,-100.00,SSW,202,5.0,-999.0,56,-99.99,,,-99.99,62.639999,,2013-02-01 23:42:00,
2013-02-01 18:52:00,11.0,-2.0,-100.00,SSW,202,5.0,-999.0,56,-99.99,,,-99.99,62.639999,,2013-02-01 23:52:00,
2013-02-01 21:00:00,10.0,1.0,-100.00,SSW,202,6.0,-999.0,68,-99.99,,,-99.99,0.000000,,2013-02-02 02:00:00,
2013-02-01 21:42:00,10.0,1.0,-100.00,SSW,202,6.0,-999.0,68,-99.99,,,-99.99,0.000000,,2013-02-02 02:42:00,
2013-02-01 21:52:00,10.0,1.0,-100.00,SSW,202,6.0,-999.0,68,-99.99,,,-99.99,0.000000,,2013-02-02 02:52:00,